Weather History for KPKD - June, 2012

Change the Weather History Date:

Wednesday, June 20, 2012

  Actual Average Record
Temperature  
Mean Temperature 64 °F -  
Max Temperature 72 °F 76 °F 94 °F (1988)
Min Temperature 57 °F 51 °F 33 °F (1969)
Degree Days  
Heating Degree Days 1    
Growing Degree Days 14 (Base 50)    
Moisture  
Dew Point 59 °F    
Average Humidity 88    
Maximum Humidity 100    
Minimum Humidity 59    
Precipitation  
Precipitation 0.84 in - - ()
Sea Level Pressure  
Sea Level Pressure 29.75 in    
Wind  
Wind Speed 8 mph (NNW)    
Max Wind Speed 16 mph    
Max Gust Speed 22 mph    
Visibility 7 miles    
Events Rain    
Averages and records for this station are not official NWS values.
T = Trace of Precipitation, MM = Missing Value Source: NWS Daily Summary

Daily Weather History Graph

Daily Weather History Graph

Search for Another Location

Airport or City:

Trip Planner

Search our weather history database for the weather conditions in past years. The results will help you decide how hot, cold, wet, or windy it might be!

Date:

Astronomy

Jun. 20, 2012 Rise Set
Actual Time 5:25 AM CDT 9:18 PM CDT
Civil Twilight 4:45 AM CDT 9:58 PM CDT
Nautical Twilight 3:51 AM CDT 10:52 PM CDT
Astronomical Twilight 2:30 AM CDT 12:13 AM CDT
Moon 6:30 AM CDT (6/20) 9:58 PM CDT (6/20)
Length of Visible Light 17h 12m
Length of Day
15h 53m
New Moon, 1% of the Moon is Illuminated
Jun 20
New Moon
Jun 26
First Quarter
Jul 3
Full
Jul 10
Last Quarter
Jul 18
New

Hourly Weather History & Observations

Time (CDT) Temp. Dew Point Humidity Pressure Visibility Wind Dir Wind Speed Gust Speed Precip Events Conditions
12:00 AM 60.8 °F 59.0 °F 94% 29.69 in 6.0 mi NE 9.2 mph 16.1 mph 0.01 in Rain Rain
12:08 AM 60.8 °F 59.0 °F 94% 29.69 in 4.0 mi ENE 5.8 mph - 0.06 in Rain Rain
12:15 AM 60.8 °F 59.0 °F 94% 29.68 in 1.8 mi NE 9.2 mph 16.1 mph 0.23 in Rain Heavy Rain
12:27 AM 60.8 °F 59.0 °F 94% 29.69 in 2.0 mi North 8.1 mph - 0.35 in Rain Heavy Rain
12:32 AM 60.8 °F 59.0 °F 94% 29.69 in 3.0 mi NNE 9.2 mph - 0.36 in Rain Rain
12:53 AM 61.0 °F 59.0 °F 93% 29.69 in 10.0 mi NNE 6.9 mph - 0.36 in   Overcast
1:12 AM 60.8 °F 59.0 °F 94% 29.67 in 10.0 mi NNE 9.2 mph - N/A   Overcast
1:53 AM 61.0 °F 59.0 °F 93% 29.67 in 10.0 mi NNE 3.5 mph - N/A   Overcast
2:53 AM 61.0 °F 59.0 °F 93% 29.64 in 10.0 mi NE 6.9 mph - N/A   Overcast
3:44 AM 60.8 °F 60.8 °F 100% 29.71 in 2.5 mi Calm Calm - N/A   Overcast
3:53 AM 61.0 °F 60.1 °F 97% 29.72 in 2.5 mi NNW 4.6 mph - N/A   Overcast
4:16 AM 60.8 °F 60.8 °F 100% 29.72 in 3.0 mi NNW 6.9 mph - N/A   Overcast
4:53 AM 61.0 °F 59.0 °F 93% 29.73 in 3.0 mi NNW 6.9 mph - 0.00 in Rain Light Rain
5:53 AM 61.0 °F 59.0 °F 93% 29.62 in 10.0 mi NNE 15.0 mph 21.9 mph 0.05 in Rain Light Rain
6:31 AM 60.8 °F 59.0 °F 94% 29.73 in 6.0 mi NNW 6.9 mph - 0.01 in Rain Rain
6:53 AM 61.0 °F 59.0 °F 93% 29.78 in 8.0 mi WSW 5.8 mph - 0.04 in Rain Light Rain
7:08 AM 60.8 °F 59.0 °F 94% 29.72 in 2.5 mi North 6.9 mph - 0.03 in Rain Heavy Rain
7:16 AM 60.8 °F 59.0 °F 94% 29.72 in 5.0 mi NNW 8.1 mph - 0.04 in Rain Light Rain
7:53 AM 61.0 °F 59.0 °F 93% 29.77 in 5.0 mi WNW 10.4 mph - 0.05 in Rain Rain
8:19 AM 60.8 °F 59.0 °F 94% 29.80 in 2.5 mi WNW 6.9 mph - 0.07 in Rain Heavy Rain
8:26 AM 60.8 °F 59.0 °F 94% 29.80 in 2.5 mi WNW 6.9 mph - 0.10 in Rain Heavy Rain
8:35 AM 60.8 °F 59.0 °F 94% 29.79 in 2.5 mi NW 6.9 mph - 0.13 in Rain Heavy Rain
8:43 AM 60.8 °F 59.0 °F 94% 29.82 in 2.5 mi West 9.2 mph - 0.15 in Rain Rain
8:53 AM 61.0 °F 59.0 °F 93% 29.82 in 1.5 mi WNW 11.5 mph - 0.21 in Rain Heavy Rain
9:03 AM 60.8 °F 59.0 °F 94% 29.81 in 2.0 mi WNW 9.2 mph - 0.05 in Rain Heavy Rain
9:24 AM 60.8 °F 60.8 °F 100% 29.78 in 3.0 mi NNW 5.8 mph - 0.10 in Rain Rain
9:53 AM 62.1 °F 60.1 °F 93% 29.71 in 10.0 mi NE 3.5 mph - 0.13 in Rain Light Rain
10:19 AM 62.6 °F 60.8 °F 94% 29.68 in 10.0 mi NNE 5.8 mph - 0.00 in Rain Light Rain
10:53 AM 63.0 °F 59.0 °F 87% 29.68 in 10.0 mi Variable 4.6 mph - 0.00 in   Scattered Clouds
11:05 AM 62.6 °F 59.0 °F 88% 29.69 in 10.0 mi ENE 8.1 mph - N/A   Mostly Cloudy
11:12 AM 62.6 °F 57.2 °F 82% 29.68 in 10.0 mi ENE 5.8 mph - N/A   Scattered Clouds
11:38 AM 64.4 °F 60.8 °F 88% 29.71 in 10.0 mi NNW 6.9 mph - N/A   Mostly Cloudy
11:53 AM 62.6 °F 59.0 °F 88% 29.76 in 10.0 mi WNW 15.0 mph - N/A   Overcast
12:22 PM 64.4 °F 59.0 °F 83% 29.78 in 10.0 mi West 9.2 mph - 0.00 in   Overcast
12:40 PM 64.4 °F 60.8 °F 88% 29.78 in 10.0 mi WNW 9.2 mph - 0.00 in   Scattered Clouds
12:53 PM 66.0 °F 60.1 °F 81% 29.79 in 10.0 mi WNW 10.4 mph - 0.00 in   Scattered Clouds
1:53 PM 66.0 °F 60.1 °F 81% 29.81 in 10.0 mi West 11.5 mph - N/A   Overcast
2:53 PM 68.0 °F 57.9 °F 70% 29.81 in 10.0 mi West 12.7 mph 18.4 mph N/A   Mostly Cloudy
3:53 PM 71.1 °F 57.9 °F 63% 29.79 in 10.0 mi WNW 16.1 mph - N/A   Partly Cloudy
4:53 PM 70.0 °F 57.0 °F 63% 29.79 in 10.0 mi West 16.1 mph - N/A   Scattered Clouds
5:53 PM 70.0 °F 55.0 °F 59% 29.78 in 10.0 mi NW 11.5 mph - N/A   Clear
6:53 PM 68.0 °F 55.0 °F 63% 29.80 in 10.0 mi WNW 13.8 mph - N/A   Clear
7:53 PM 66.0 °F 57.0 °F 73% 29.79 in 10.0 mi SSW 3.5 mph - N/A   Overcast
8:53 PM 62.1 °F 55.0 °F 78% 29.81 in 10.0 mi WSW 5.8 mph - N/A   Clear
9:53 PM 57.0 °F 53.1 °F 87% 29.82 in 10.0 mi WSW 5.8 mph - N/A   Clear
10:53 PM 59.0 °F 53.1 °F 81% 29.83 in 10.0 mi Calm Calm - N/A   Mostly Cloudy
11:53 PM 57.9 °F 54.0 °F 87% 29.85 in 10.0 mi Calm Calm - N/A   Mostly Cloudy